Flag for Canada Weather past 2 weeks in Québec, Quebec, Canada

Now
48 °F

Broken clouds.


Feels Like: 48 °F
Forecast: N/A
Wind: No wind

Location: Quebec Weather Station

Current Time: Oct 25, 2014 at 5:28:15 PM

Latest Report: Oct 25, 2014 at 4:00 PM


Visibility: 15 mi

Pressure: 29.54 "Hg

Humidity: 71%

Dew point: 39 °F

Location of QuébecLocation

Historic Weather in Québec — Graph

°F

Québec temperature yesterday

Maximum temperature yesterday: 48 °F (at 12:48 PM)
Minimum temperature yesterday: 41 °F (at 8:00 PM)
Average temperature yesterday: 45 °F

Past Weeks' High & Low Weather Summary

 TemperatureHumidityPressure
High68 °F (Oct 15, 10:00 AM)100% (Oct 11, 8:00 AM)30.39 "Hg (Oct 11, 8:00 AM)
Low30 °F (Oct 13, 7:00 AM)45% (Oct 13, 4:00 PM)29.43 "Hg (Oct 18, 5:00 PM)
Average47 °F78%29.95 "Hg
* Reported Oct 10 4:00 PM — Oct 25 4:00 PM, Québec, Weather by CustomWeather, © 2014

Note: Actual official high and low records may vary slightly from our data, if they occured in-between our weather recording intervals... More about our weather records

Advertising

Québec weather history for previous 24 hours

 ConditionsComfort  
Time TempWeatherWind HumidityBarometerVisibility
4:00 PM
Oct 25
48 °FBroken clouds.No wind71%29.54 "Hg15 mi
3:00 PM48 °FPartly sunny.3 mph71%29.56 "Hg10 mi
2:00 PM48 °FScattered clouds.No wind71%29.57 "Hg10 mi
1:00 PM45 °FFog.8 mph81%29.61 "Hg2 mi
12:00 PM43 °FFog.13 mph87%29.64 "Hg5 mi
11:46 AM45 °FFog.10 mph81%29.65 "Hg6 mi
11:00 AM45 °FScattered clouds.12 mph81%29.65 "Hg30 mi
10:00 AM41 °FPassing clouds.10 mph87%29.68 "Hg30 mi
9:00 AM37 °FScattered clouds.No wind93%29.69 "Hg30 mi
8:00 AM30 °FPassing clouds.5 mph100%29.71 "Hg30 mi
7:00 AM32 °FPassing clouds.No wind87%29.71 "Hg30 mi
6:00 AM32 °FPassing clouds.No wind87%29.72 "Hg15 mi
5:00 AM32 °FPassing clouds.No wind93%29.72 "Hg15 mi
4:00 AM32 °FPassing clouds.No wind93%29.73 "Hg15 mi
3:00 AM34 °FPassing clouds.No wind93%29.74 "Hg15 mi
2:00 AM37 °FPassing clouds.2 mph81%29.75 "Hg15 mi
1:00 AM39 °FPassing clouds.No wind75%29.77 "Hg15 mi
12:00 AM39 °FPartly cloudy.3 mph81%29.78 "Hg15 mi
11:00 PM
Oct 24
41 °FPartly cloudy.2 mph76%29.79 "Hg15 mi
10:00 PM41 °FPassing clouds.6 mph76%29.80 "Hg15 mi
9:00 PM41 °FPartly cloudy.3 mph76%29.82 "Hg15 mi
8:00 PM41 °FPassing clouds.3 mph81%29.82 "Hg15 mi
7:00 PM45 °FPartly cloudy.No wind66%29.82 "Hg15 mi
6:00 PM46 °FBroken clouds.No wind62%29.82 "Hg15 mi
5:00 PM48 °FPartly sunny.5 mph58%29.83 "Hg30 mi
Weather by CustomWeather, © 2014

See weather overviewHow to use our weather pages